When you browse on this site, cookies collect data to enhance your experience and personalize the content and advertising you see.
Visit our Privacy Policy to learn more. By continuing to use the site, you agree to this use of cookies and data.
  • In Czech Republic
  • List of Countries
  • For 7 days
  • Water Temperature
  • Weather Map
  • Weather Widgets
  • user-avatar
    Login

    Hourly Weather La-Plata

    Today, 19 September, Thursday

    Time Temperature Precipitation Wind Pressure Humidity
    00:00 +15°C° 0 mm 6 mps 751 mmHg 78%
    01:00 +15°C° 0 mm 6 mps 750 mmHg 77%
    02:00 +15°C° 0 mm 7 mps 750 mmHg 76%
    03:00 +15°C° 0 mm 7 mps 750 mmHg 74%
    04:00 +14°C° 0 mm 7 mps 751 mmHg 72%
    05:00 +14°C° 0 mm 7 mps 751 mmHg 71%
    06:00 +14°C° 0 mm 7 mps 752 mmHg 70%
    07:00 +14°C° 0 mm 6 mps 753 mmHg 69%
    08:00 +14°C° 0 mm 6 mps 754 mmHg 68%
    09:00 +14°C° 0 mm 6 mps 754 mmHg 63%
    10:00 +14°C° 0 mm 6 mps 755 mmHg 59%
    11:00 +15°C° 0 mm 6 mps 755 mmHg 54%
    12:00 +15°C° 0 mm 6 mps 756 mmHg 49%
    13:00 +15°C° 0 mm 6 mps 756 mmHg 45%
    14:00 +16°C° 0 mm 7 mps 756 mmHg 40%
    15:00 +15°C° 0 mm 5 mps 757 mmHg 44%
    16:00 +14°C° 0 mm 4 mps 757 mmHg 48%
    17:00 +13°C° 0 mm 3 mps 757 mmHg 51%
    18:00 +12°C° 0 mm 3 mps 758 mmHg 50%
    19:00 +11°C° 0 mm 3 mps 759 mmHg 48%
    20:00 +9°C° 0 mm 2 mps 760 mmHg 46%
    21:00 +9°C° 0 mm 2 mps 760 mmHg 45%
    22:00 +9°C° 0 mm 2 mps 761 mmHg 45%
    23:00 +8°C° 0 mm 2 mps 761 mmHg 44%

    Tomorrow, 20 September, Friday

    Time Temperature Precipitation Wind Pressure Humidity
    00:00 +8°C° 0 mm 2 mps 761 mmHg 45%
    01:00 +8°C° 0 mm 2 mps 761 mmHg 45%
    02:00 +8°C° 0 mm 2 mps 761 mmHg 46%
    03:00 +8°C° 0 mm 2 mps 761 mmHg 47%
    04:00 +7°C° 0 mm 2 mps 762 mmHg 48%
    05:00 +7°C° 0 mm 2 mps 762 mmHg 50%
    06:00 +8°C° 0 mm 2 mps 762 mmHg 50%
    07:00 +9°C° 0 mm 3 mps 762 mmHg 50%
    08:00 +11°C° 0 mm 3 mps 763 mmHg 50%
    09:00 +12°C° 0 mm 3 mps 763 mmHg 46%
    10:00 +14°C° 0 mm 3 mps 763 mmHg 42%
    11:00 +17°C° 0 mm 4 mps 763 mmHg 38%
    12:00 +18°C° 0 mm 4 mps 763 mmHg 38%
    13:00 +18°C° 0 mm 4 mps 762 mmHg 38%
    14:00 +18°C° 0 mm 4 mps 762 mmHg 39%
    15:00 +17°C° 0 mm 4 mps 762 mmHg 43%
    16:00 +17°C° 0 mm 4 mps 762 mmHg 48%
    17:00 +16°C° 0 mm 3 mps 762 mmHg 53%
    18:00 +14°C° 0 mm 3 mps 762 mmHg 51%
    19:00 +13°C° 0 mm 3 mps 763 mmHg 49%
    20:00 +13°C° 0 mm 2 mps 763 mmHg 47%
    21:00 +11°C° 0 mm 3 mps 763 mmHg 50%
    22:00 +11°C° 0 mm 3 mps 763 mmHg 52%
    23:00 +10°C° 0 mm 4 mps 763 mmHg 55%

    Day after tomorrow, 21 September, Saturday

    Time Temperature Precipitation Wind Pressure Humidity
    00:00 +10°C° 0 mm 4 mps 763 mmHg 55%
    01:00 +10°C° 0 mm 4 mps 763 mmHg 56%
    02:00 +10°C° 0 mm 4 mps 763 mmHg 56%
    03:00 +10°C° 0 mm 4 mps 763 mmHg 55%
    04:00 +9°C° 0 mm 5 mps 763 mmHg 54%
    05:00 +8°C° 0 mm 5 mps 763 mmHg 54%
    06:00 +10°C° 0 mm 6 mps 763 mmHg 53%
    07:00 +11°C° 0 mm 6 mps 763 mmHg 52%
    08:00 +14°C° 0 mm 7 mps 763 mmHg 52%
    09:00 +15°C° 0 mm 7 mps 763 mmHg 49%
    10:00 +16°C° 0 mm 7 mps 763 mmHg 46%
    11:00 +18°C° 0 mm 7 mps 763 mmHg 43%
    12:00 +20°C° 0 mm 7 mps 762 mmHg 44%
    13:00 +20°C° 0 mm 7 mps 762 mmHg 44%
    14:00 +21°C° 0 mm 6 mps 762 mmHg 45%
    15:00 +20°C° 0 mm 6 mps 762 mmHg 50%
    16:00 +19°C° 0 mm 5 mps 762 mmHg 54%
    17:00 +19°C° 0 mm 4 mps 762 mmHg 58%
    18:00 +17°C° 0 mm 4 mps 763 mmHg 58%
    19:00 +14°C° 0 mm 4 mps 764 mmHg 58%
    20:00 +12°C° 0 mm 4 mps 764 mmHg 58%
    21:00 +11°C° 0 mm 3 mps 765 mmHg 58%
    22:00 +11°C° 0 mm 3 mps 765 mmHg 58%
    23:00 +10°C° 0 mm 3 mps 766 mmHg 58%

    22 September, Sunday

    Time Temperature Precipitation Wind Pressure Humidity
    00:00 +9°C° 0 mm 3 mps 766 mmHg 65%
    01:00 +8°C° 0 mm 3 mps 766 mmHg 72%
    02:00 +8°C° 0 mm 3 mps 766 mmHg 80%
    03:00 +7°C° 0 mm 3 mps 767 mmHg 77%
    04:00 +7°C° 0 mm 3 mps 767 mmHg 75%
    05:00 +5°C° 0 mm 3 mps 768 mmHg 72%
    06:00 +7°C° 0 mm 3 mps 768 mmHg 68%
    07:00 +9°C° 0 mm 3 mps 769 mmHg 64%
    08:00 +10°C° 0 mm 2 mps 769 mmHg 59%
    09:00 +13°C° 0 mm 2 mps 769 mmHg 54%
    10:00 +14°C° 0 mm 2 mps 770 mmHg 48%
    11:00 +16°C° 0 mm 2 mps 770 mmHg 42%
    12:00 +16°C° 0 mm 3 mps 769 mmHg 43%
    13:00 +17°C° 0 mm 3 mps 769 mmHg 43%
    14:00 +17°C° 0 mm 4 mps 769 mmHg 43%
    15:00 +15°C° 0 mm 4 mps 768 mmHg 48%
    16:00 +13°C° 0 mm 4 mps 768 mmHg 52%
    17:00 +12°C° 0 mm 5 mps 768 mmHg 57%
    18:00 +10°C° 0 mm 5 mps 768 mmHg 60%
    19:00 +9°C° 0 mm 5 mps 768 mmHg 63%
    20:00 +8°C° 0 mm 5 mps 768 mmHg 65%
    21:00 +8°C° 0 mm 5 mps 768 mmHg 65%
    22:00 +8°C° 0 mm 6 mps 768 mmHg 65%
    23:00 +8°C° 0 mm 6 mps 768 mmHg 64%

    23 September, Monday

    Time Temperature Precipitation Wind Pressure Humidity
    00:00 +8°C° 0 mm 6 mps 768 mmHg 66%
    01:00 +8°C° 0 mm 6 mps 768 mmHg 67%
    02:00 +8°C° 0 mm 6 mps 768 mmHg 69%
    03:00 +8°C° 0 mm 6 mps 768 mmHg 70%
    04:00 +7°C° 0 mm 5 mps 767 mmHg 71%
    05:00 +7°C° 0 mm 5 mps 767 mmHg 72%
    06:00 +8°C° 0 mm 5 mps 767 mmHg 68%
    07:00 +9°C° 0 mm 5 mps 768 mmHg 64%
    08:00 +12°C° 0 mm 5 mps 768 mmHg 60%
    09:00 +13°C° 0 mm 5 mps 768 mmHg 57%
    10:00 +14°C° 0 mm 4 mps 767 mmHg 53%
    11:00 +15°C° 0 mm 4 mps 767 mmHg 50%
    12:00 +17°C° 0 mm 4 mps 767 mmHg 49%
    13:00 +17°C° 0 mm 4 mps 766 mmHg 49%
    14:00 +18°C° 0 mm 4 mps 765 mmHg 48%
    15:00 +17°C° 0 mm 3 mps 765 mmHg 52%
    16:00 +17°C° 0 mm 3 mps 765 mmHg 55%
    17:00 +16°C° 0 mm 2 mps 764 mmHg 59%
    18:00 +15°C° 0 mm 2 mps 765 mmHg 63%
    19:00 +13°C° 0 mm 3 mps 765 mmHg 66%
    20:00 +12°C° 0 mm 3 mps 765 mmHg 69%
    21:00 +12°C° 0 mm 3 mps 765 mmHg 71%
    22:00 +13°C° 0 mm 4 mps 765 mmHg 72%
    23:00 +13°C° 0 mm 4 mps 765 mmHg 74%

    24 September, Tuesday

    Time Temperature Precipitation Wind Pressure Humidity
    00:00 +12°C° 0 mm 4 mps 765 mmHg 75%
    01:00 +12°C° 0 mm 4 mps 765 mmHg 76%
    02:00 +12°C° 0 mm 3 mps 765 mmHg 77%
    03:00 +12°C° 0 mm 3 mps 765 mmHg 78%
    04:00 +11°C° 0 mm 3 mps 765 mmHg 79%
    05:00 +11°C° 0 mm 3 mps 765 mmHg 79%
    06:00 +13°C° 0 mm 2 mps 765 mmHg 76%
    07:00 +14°C° 0 mm 2 mps 765 mmHg 72%
    08:00 +15°C° 0 mm 1 mps 765 mmHg 68%
    09:00 +18°C° 0 mm 1 mps 766 mmHg 64%
    10:00 +19°C° 0 mm 1 mps 766 mmHg 60%
    11:00 +21°C° 0 mm 1 mps 766 mmHg 55%
    12:00 +22°C° 0 mm 1 mps 766 mmHg 56%
    13:00 +21°C° 0 mm 2 mps 765 mmHg 56%
    14:00 +21°C° 0 mm 2 mps 765 mmHg 56%
    15:00 +20°C° 0 mm 3 mps 765 mmHg 63%
    16:00 +19°C° 0 mm 3 mps 765 mmHg 69%
    17:00 +17°C° 0 mm 4 mps 765 mmHg 75%
    18:00 +15°C° 0 mm 4 mps 765 mmHg 79%
    19:00 +13°C° 0 mm 4 mps 766 mmHg 82%
    20:00 +12°C° 0 mm 4 mps 766 mmHg 85%
    21:00 +11°C° 0 mm 4 mps 766 mmHg 87%
    22:00 +11°C° 0 mm 4 mps 766 mmHg 88%
    23:00 +10°C° 0 mm 4 mps 766 mmHg 90%
    Show more